Regional Weather Roundup
Issued by NWS

Home | Current Version | Previous Version | Graphics & Text | Print | Product List | Glossary On
Versions: 1 2 3 4 5 6 7 8 9 10 11 12 13 14 15 16 17 18 19 20 21 22 23 24 25 26 27 28 29 30 31 32 33 34 35 36 37 38 39 40 41 42 43 44 45 46 47 48 49 50
000
ASUS45 KCYS 301810
RWRWY

WYOMING REGIONAL WEATHER ROUNDUP
NATIONAL WEATHER SERVICE CHEYENNE WY
1200 PM MDT SAT AUG 30 2014

NOTE:  "FAIR" INDICATES FEW OR NO CLOUDS BELOW 12,000 FEET
WITH NO SIGNIFICANT WEATHER AND/OR OBSTRUCTIONS TO VISIBILITY.

WYZ001-301900-
YELLOWSTONE NATIONAL PARK

CITY           SKY/WX    TMP DP  RH WIND       PRES   REMARKS
LK YELLOWSTONE   N/A     51  41  68 MISG      30.11R
6HR MIN TEMP:  43; 6HR MAX TEMP:  57; 6HR PCP:  0.05;

W YELLOWSTONE  NOT AVBL

$$
WYZ002>013-054>058-071-098>099-301900-
NORTHERN WYOMING

CITY           SKY/WX    TMP DP  RH WIND       PRES   REMARKS
JACKSON        NOT AVBL
CODY           MOSUNNY  N/A N/A N/A NE12      29.86F
GREYBULL       MOSUNNY   77  45  32 N9        29.79F
6HR MIN TEMP:  56; 6HR MAX TEMP:  78;

WORLAND        PTSUNNY   79  46  31 VRB6      29.78F
6HR MIN TEMP:  54; 6HR MAX TEMP:  79;

SHERIDAN       PTSUNNY   72  50  45 NW21G26   29.85R
6HR MIN TEMP:  47; 6HR MAX TEMP:  73;

BUFFALO        PTSUNNY   74  45  35 N29G39    29.86R
6HR MIN TEMP:  60; 6HR MAX TEMP:  79;

GILLETTE       PTSUNNY   84  47  27 S14       29.80F
6HR MIN TEMP:  57; 6HR MAX TEMP:  84;

HULETT         FAIR      82  46  28 MISG      29.82
NEWCASTLE      FAIR      79  45  29 SE10G16   29.87

$$
WYZ014>020-022>026-101>103-301900-
CENTRAL WYOMING

CITY           SKY/WX    TMP DP  RH WIND       PRES   REMARKS
BIG PINEY      PTSUNNY   69  44  40 SW9G20    30.07S
6HR MIN TEMP:  42; 6HR MAX TEMP:  69;

PINEDALE       PTCLDY    70  39  32 S12G17    30.07F
DUBOIS         FAIR      72  32  23 W22G29    29.98F
LANDER         SUNNY     84  34  16 SW18G26   29.85F
6HR MIN TEMP:  54; 6HR MAX TEMP:  84;

RIVERTON       SUNNY     76  42  29 VRB5      29.88F
6HR MIN TEMP:  54; 6HR MAX TEMP:  77;

CASPER         MOSUNNY   82  39  21 S24G33    29.91F
6HR MIN TEMP:  61; 6HR MAX TEMP:  83;

DOUGLAS        MOSUNNY   84  46  26 SW9       29.91F
6HR MIN TEMP:  51; 6HR MAX TEMP:  84;


$$
WYZ021-027>030-104>119-301900-
SOUTHERN WYOMING

CITY           SKY/WX    TMP DP  RH WIND       PRES   REMARKS
EVANSTON       PTSUNNY   69  36  29 W24G38    30.13R
6HR MIN TEMP:  52; 6HR MAX TEMP:  70;

KEMMERER       CLOUDY    66  36  32 SW18G24   30.12S
ROCK SPRINGS   MOSUNNY   76  34  21 W25G38    30.07F
6HR MIN TEMP:  53; 6HR MAX TEMP:  77;

DIXON          FAIR      75  44  32 S15G25    30.11F
RAWLINS        SUNNY     77  37  23 SW30G40   30.06F
6HR MIN TEMP:  50; 6HR MAX TEMP:  78;

LARAMIE        SUNNY     74  40  29 W18G26    30.12F
6HR MIN TEMP:  45; 6HR MAX TEMP:  74;

CHEYENNE       SUNNY     78  43  28 S15G23    30.06F
6HR MIN TEMP:  48; 6HR MAX TEMP:  79;

TORRINGTON     SUNNY     82  51  34 S6        29.90F
6HR MIN TEMP:  55; 6HR MAX TEMP:  82;

PINE BLUFFS    FAIR      81  45  28 S10G17    30.00F

$$


USA.gov is the U.S. government's official web portal to all federal, state and local government web resources and services.